LNI749 WAMM-WARR

Flight info

Callsign LNI749
Flight time 2h 20m
Altitude 34000
Route LUANG W32 SUSIL W32N KOLTA
Aircraft B739/M-SDE2E3FGHIRWXY/LB1

Departure

Time 2026-05-09 10:05
Airport Sam Ratulangi International Airport (WAMM)

Arrival

Time 2026-05-09 12:25
Airport Juanda International Airport (WARR)
Time Latitude Longitude Altitude Speed Heading
2026-05-09 09:33 1.54351 124.92341 335 ft 0 kts 262°
2026-05-09 09:53 1.54353 124.92355 330 ft 3 kts 266°
2026-05-09 09:53 1.54353 124.92379 331 ft 3 kts 277°
2026-05-09 09:54 1.54348 124.92402 330 ft 3 kts 300°
2026-05-09 09:54 1.54334 124.92417 334 ft 4 kts 353°
2026-05-09 09:54 1.54330 124.92418 331 ft 0 kts
2026-05-09 09:58 1.54332 124.92418 331 ft 1 kts
2026-05-09 09:58 1.54350 124.92419 332 ft 4 kts
2026-05-09 09:59 1.54387 124.92431 334 ft 7 kts 26°
2026-05-09 09:59 1.54443 124.92450 335 ft 10 kts
2026-05-09 09:59 1.54518 124.92453 335 ft 12 kts
2026-05-09 09:59 1.54608 124.92456 333 ft 14 kts
2026-05-09 10:00 1.54711 124.92460 335 ft 16 kts
2026-05-09 10:00 1.54829 124.92463 333 ft 18 kts
2026-05-09 10:00 1.54958 124.92467 332 ft 19 kts
2026-05-09 10:00 1.55098 124.92472 335 ft 21 kts
2026-05-09 10:01 1.55192 124.92475 335 ft 12 kts
2026-05-09 10:01 1.55284 124.92478 335 ft 14 kts
2026-05-09 10:01 1.55390 124.92482 331 ft 16 kts
2026-05-09 10:01 1.55509 124.92486 335 ft 18 kts
2026-05-09 10:02 1.55638 124.92490 335 ft 19 kts
2026-05-09 10:02 1.55774 124.92495 335 ft 19 kts
2026-05-09 10:02 1.55892 124.92499 335 ft 17 kts
2026-05-09 10:02 1.56013 124.92502 335 ft 14 kts
2026-05-09 10:03 1.56102 124.92515 334 ft 12 kts 33°
2026-05-09 10:03 1.56119 124.92572 331 ft 8 kts 88°
2026-05-09 10:03 1.56117 124.92638 331 ft 7 kts 99°
2026-05-09 10:03 1.56078 124.92667 335 ft 8 kts 169°
2026-05-09 10:04 1.56009 124.92666 336 ft 23 kts 182°
2026-05-09 10:04 1.55591 124.92652 336 ft 97 kts 182°
2026-05-09 10:04 1.54704 124.92623 335 ft 156 kts 182°
2026-05-09 10:04 1.53506 124.92582 646 ft 179 kts 182°
2026-05-09 10:05 1.52234 124.92529 1389 ft 184 kts 181°
2026-05-09 10:05 1.50944 124.92516 2084 ft 189 kts 181°
2026-05-09 10:05 1.49667 124.92033 2338 ft 213 kts 223°
2026-05-09 10:05 1.48843 124.90736 2531 ft 235 kts 254°
2026-05-09 10:06 1.48635 124.89047 2739 ft 258 kts 269°
2026-05-09 10:06 1.48640 124.87207 3250 ft 269 kts 271°
2026-05-09 10:06 1.48675 124.85337 4046 ft 270 kts 271°
2026-05-09 10:06 1.48702 124.83447 4831 ft 273 kts 271°
2026-05-09 10:07 1.48715 124.81541 5566 ft 276 kts 270°
2026-05-09 10:07 1.48721 124.79612 6297 ft 279 kts 270°
2026-05-09 10:07 1.48722 124.77661 6971 ft 283 kts 270°
2026-05-09 10:07 1.48702 124.75689 7632 ft 286 kts 264°
2026-05-09 10:08 1.48076 124.73802 8253 ft 291 kts 237°
2026-05-09 10:08 1.46723 124.72302 8938 ft 293 kts 222°
2026-05-09 10:08 1.45175 124.70953 9591 ft 297 kts 220°
2026-05-09 10:08 1.43581 124.69614 10231 ft 301 kts 220°
2026-05-09 10:09 1.41930 124.68231 10445 ft 321 kts 220°
2026-05-09 10:09 1.40167 124.66747 10595 ft 341 kts 220°
2026-05-09 10:09 1.38311 124.65173 10807 ft 357 kts 220°
2026-05-09 10:09 1.36402 124.63544 11257 ft 363 kts 220°
2026-05-09 10:10 1.34479 124.61899 11849 ft 365 kts 220°
2026-05-09 10:10 1.32543 124.60238 12424 ft 368 kts 220°
2026-05-09 10:10 1.30599 124.58568 12959 ft 371 kts 220°
2026-05-09 10:10 1.28630 124.56876 13490 ft 375 kts 220°
2026-05-09 10:11 1.26641 124.55167 13964 ft 378 kts 220°
2026-05-09 10:11 1.24647 124.53453 14459 ft 380 kts 220°
2026-05-09 10:11 1.22632 124.51721 14937 ft 383 kts 220°
2026-05-09 10:11 1.20605 124.49978 15399 ft 385 kts 220°
2026-05-09 10:12 1.18563 124.48223 15854 ft 388 kts 220°
2026-05-09 10:12 1.16510 124.46458 16309 ft 391 kts 220°
2026-05-09 10:12 1.14442 124.44680 16751 ft 394 kts 220°
2026-05-09 10:12 1.12358 124.42890 17200 ft 396 kts 220°
2026-05-09 10:13 1.10234 124.41126 17622 ft 399 kts 214°
2026-05-09 10:13 1.07757 124.39891 18024 ft 400 kts 199°
2026-05-09 10:13 1.05139 124.38946 18420 ft 402 kts 199°
2026-05-09 10:13 1.02489 124.38009 18772 ft 404 kts 199°
2026-05-09 10:14 0.99837 124.37066 19125 ft 406 kts 199°
2026-05-09 10:14 0.97166 124.36104 19483 ft 408 kts 199°
2026-05-09 10:14 0.94492 124.35128 19849 ft 410 kts 199°
2026-05-09 10:14 0.91845 124.34155 20192 ft 412 kts 199°
2026-05-09 10:15 0.89144 124.33158 20536 ft 414 kts 199°
2026-05-09 10:15 0.86440 124.32158 20872 ft 417 kts 199°
2026-05-09 10:15 0.83714 124.31149 21197 ft 419 kts 199°
2026-05-09 10:15 0.80936 124.30122 21542 ft 421 kts 199°
2026-05-09 10:16 0.78222 124.29118 21849 ft 423 kts 199°
2026-05-09 10:16 0.75461 124.28097 22162 ft 425 kts 199°
2026-05-09 10:16 0.72678 124.27068 22465 ft 427 kts 199°
2026-05-09 10:16 0.69886 124.26036 22763 ft 429 kts 199°
2026-05-09 10:17 0.67082 124.25001 22886 ft 434 kts 199°
2026-05-09 10:17 0.64235 124.23950 23150 ft 435 kts 199°
2026-05-09 10:17 0.61402 124.22904 23542 ft 433 kts 199°
2026-05-09 10:17 0.58576 124.21861 23816 ft 434 kts 199°
2026-05-09 10:18 0.55735 124.20812 24036 ft 436 kts 199°
2026-05-09 10:18 0.52877 124.19757 24221 ft 438 kts 200°
2026-05-09 10:18 0.50015 124.18700 24463 ft 440 kts 200°
2026-05-09 10:18 0.47140 124.17638 24699 ft 441 kts 200°
2026-05-09 10:19 0.44259 124.16574 24907 ft 442 kts 200°
2026-05-09 10:19 0.41367 124.15506 25109 ft 444 kts 200°
2026-05-09 10:19 0.39447 124.14797 25249 ft 445 kts 200°
2026-05-09 10:19 0.36542 124.13724 25461 ft 446 kts 200°
2026-05-09 10:20 0.32658 124.12226 25725 ft 449 kts 206°
2026-05-09 10:20 0.30892 124.11143 25814 ft 451 kts 219°
2026-05-09 10:20 0.28658 124.08936 26035 ft 452 kts 227°
2026-05-09 10:20 0.26576 124.06584 26243 ft 453 kts 228°
2026-05-09 10:21 0.24499 124.04204 26423 ft 455 kts 228°
2026-05-09 10:21 0.22412 124.01827 26591 ft 457 kts 228°
2026-05-09 10:21 0.20301 123.99449 26776 ft 458 kts 227°
2026-05-09 10:21 0.18173 123.97073 26962 ft 459 kts 227°
2026-05-09 10:22 0.16034 123.94699 27145 ft 460 kts 227°
2026-05-09 10:22 0.13887 123.92319 27327 ft 462 kts 227°
2026-05-09 10:22 0.11740 123.89940 27501 ft 463 kts 227°
2026-05-09 10:22 0.09575 123.87539 27664 ft 464 kts 227°
2026-05-09 10:23 0.07416 123.85144 27833 ft 465 kts 227°
2026-05-09 10:23 0.05142 123.82830 27986 ft 466 kts 223°
2026-05-09 10:23 0.02738 123.80656 28154 ft 467 kts 220°
2026-05-09 10:23 0.00267 123.78532 28318 ft 469 kts 220°
2026-05-09 10:24 -0.02219 123.76420 28468 ft 470 kts 220°
2026-05-09 10:24 -0.04705 123.74294 28627 ft 471 kts 220°
2026-05-09 10:24 -0.07185 123.72148 28780 ft 472 kts 220°
2026-05-09 10:24 -0.09660 123.69984 28936 ft 473 kts 221°
2026-05-09 10:25 -0.12132 123.67805 29067 ft 475 kts 221°
2026-05-09 10:25 -0.14607 123.65616 29223 ft 476 kts 221°
2026-05-09 10:25 -0.17089 123.63415 29366 ft 477 kts 221°
2026-05-09 10:25 -0.19569 123.61216 29509 ft 478 kts 221°
2026-05-09 10:26 -0.22061 123.59007 29654 ft 479 kts 221°
2026-05-09 10:26 -0.24560 123.56793 29773 ft 481 kts 221°
2026-05-09 10:26 -0.27063 123.54577 29894 ft 482 kts 221°
2026-05-09 10:26 -0.29540 123.52384 30058 ft 482 kts 221°
2026-05-09 10:27 -0.32047 123.50164 30238 ft 481 kts 221°
2026-05-09 10:27 -0.34547 123.47952 30426 ft 480 kts 221°
2026-05-09 10:27 -0.37047 123.45739 30606 ft 480 kts 221°
2026-05-09 10:27 -0.39547 123.43525 30787 ft 480 kts 221°
2026-05-09 10:28 -0.42044 123.41315 30973 ft 480 kts 221°
2026-05-09 10:28 -0.44545 123.39100 31144 ft 480 kts 221°
2026-05-09 10:28 -0.47042 123.36890 31361 ft 479 kts 221°
2026-05-09 10:28 -0.49535 123.34683 31574 ft 478 kts 221°
2026-05-09 10:29 -0.52018 123.32484 31797 ft 478 kts 221°
2026-05-09 10:29 -0.54505 123.30283 32022 ft 477 kts 220°
2026-05-09 10:29 -0.56988 123.28084 32256 ft 476 kts 220°
2026-05-09 10:29 -0.59464 123.25893 32485 ft 475 kts 220°
2026-05-09 10:30 -0.61936 123.23704 32718 ft 475 kts 220°
2026-05-09 10:30 -0.64408 123.21515 32914 ft 475 kts 220°
2026-05-09 10:30 -0.66881 123.19325 33163 ft 474 kts 220°
2026-05-09 10:30 -0.69276 123.17204 33443 ft 472 kts 220°
2026-05-09 10:31 -0.71732 123.15029 33699 ft 471 kts 220°
2026-05-09 10:31 -0.74180 123.12862 33868 ft 469 kts 220°
2026-05-09 10:31 -0.76627 123.10695 33851 ft 471 kts 220°
2026-05-09 10:32 -0.81525 123.06357 33867 ft 470 kts 220°
2026-05-09 10:32 -0.86398 123.02041 33867 ft 468 kts 221°
2026-05-09 10:33 -0.91277 122.97746 33878 ft 466 kts 220°
2026-05-09 10:33 -0.96183 122.93519 33873 ft 465 kts 220°
2026-05-09 10:34 -1.01082 122.89311 33876 ft 464 kts 220°
2026-05-09 10:34 -1.08380 122.83022 33882 ft 463 kts 220°
2026-05-09 10:35 -1.13251 122.78816 33889 ft 463 kts 220°
2026-05-09 10:35 -1.18129 122.74605 33888 ft 463 kts 220°
2026-05-09 10:36 -1.23001 122.70398 33891 ft 463 kts 220°
2026-05-09 10:36 -1.27883 122.66182 33890 ft 464 kts 220°
2026-05-09 10:37 -1.32769 122.61964 33885 ft 464 kts 220°
2026-05-09 10:37 -1.37653 122.57747 33884 ft 465 kts 220°
2026-05-09 10:38 -1.42549 122.53519 33881 ft 465 kts 220°
2026-05-09 10:38 -1.47446 122.49290 33880 ft 465 kts 220°
2026-05-09 10:39 -1.52342 122.45062 33878 ft 466 kts 220°
2026-05-09 10:39 -1.57216 122.40852 33875 ft 466 kts 220°
2026-05-09 10:40 -1.62153 122.36587 33872 ft 467 kts 220°
2026-05-09 10:40 -1.67040 122.32367 33877 ft 467 kts 220°
2026-05-09 10:41 -1.71966 122.28111 33877 ft 469 kts 220°
2026-05-09 10:41 -1.76899 122.23849 33879 ft 470 kts 220°
2026-05-09 10:42 -1.81853 122.19569 33879 ft 471 kts 220°
2026-05-09 10:42 -1.86823 122.15275 33876 ft 473 kts 220°
2026-05-09 10:43 -1.91803 122.10971 33877 ft 474 kts 220°
2026-05-09 10:43 -1.96793 122.06659 33875 ft 474 kts 220°
2026-05-09 10:44 -2.01788 122.02342 33869 ft 474 kts 220°
2026-05-09 10:44 -2.06779 121.98027 33877 ft 474 kts 220°
2026-05-09 10:46 -2.19206 121.87285 33877 ft 470 kts 220°
2026-05-09 10:46 -2.24142 121.83016 33882 ft 469 kts 220°
2026-05-09 10:47 -2.29065 121.78759 33888 ft 467 kts 220°
2026-05-09 10:47 -2.33941 121.74542 33893 ft 466 kts 220°
2026-05-09 10:48 -2.38833 121.70309 33897 ft 465 kts 220°
2026-05-09 10:48 -2.43733 121.66113 33906 ft 464 kts 219°
2026-05-09 10:49 -2.48719 121.62033 33906 ft 463 kts 218°
2026-05-09 10:49 -2.53717 121.57974 33910 ft 463 kts 218°
2026-05-09 10:50 -2.58706 121.53899 33907 ft 463 kts 218°
2026-05-09 10:50 -2.63688 121.49815 33910 ft 463 kts 218°
2026-05-09 10:51 -2.68671 121.45726 33909 ft 464 kts 218°
2026-05-09 10:51 -2.73665 121.41628 33911 ft 465 kts 218°
2026-05-09 10:52 -2.78681 121.37512 33903 ft 467 kts 218°
2026-05-09 10:52 -2.83712 121.33384 33907 ft 469 kts 219°
2026-05-09 10:53 -2.88770 121.29233 33899 ft 471 kts 219°
2026-05-09 10:53 -2.93845 121.25067 33907 ft 473 kts 219°
2026-05-09 10:54 -2.98941 121.20884 33906 ft 474 kts 219°
2026-05-09 10:54 -3.04044 121.16693 33904 ft 475 kts 219°
2026-05-09 10:55 -3.09164 121.12489 33904 ft 476 kts 219°
2026-05-09 10:55 -3.14287 121.08289 33905 ft 476 kts 219°
2026-05-09 10:56 -3.19383 121.04119 33899 ft 476 kts 219°
2026-05-09 10:56 -3.24507 120.99923 33898 ft 476 kts 219°
2026-05-09 10:57 -3.29630 120.95726 33896 ft 476 kts 219°
2026-05-09 10:57 -3.34752 120.91528 33890 ft 476 kts 219°
2026-05-09 10:58 -3.39875 120.87329 33889 ft 476 kts 219°
2026-05-09 10:58 -3.44997 120.83130 33882 ft 476 kts 219°
2026-05-09 10:59 -3.50120 120.78930 33879 ft 476 kts 218°
2026-05-09 10:59 -3.55245 120.74728 33877 ft 476 kts 218°
2026-05-09 11:00 -3.60369 120.70526 33875 ft 476 kts 218°
2026-05-09 11:00 -3.65502 120.66315 33871 ft 477 kts 218°
2026-05-09 11:01 -3.70629 120.62109 33874 ft 477 kts 219°
2026-05-09 11:01 -3.75762 120.57898 33874 ft 477 kts 219°
2026-05-09 11:02 -3.80896 120.53685 33878 ft 477 kts 219°
2026-05-09 11:02 -3.86026 120.49475 33876 ft 477 kts 219°
2026-05-09 11:03 -3.91162 120.45258 33878 ft 477 kts 219°
2026-05-09 11:03 -3.96260 120.41073 33879 ft 477 kts 219°
2026-05-09 11:04 -4.01383 120.36866 33877 ft 476 kts 219°
2026-05-09 11:04 -4.06511 120.32654 33874 ft 476 kts 219°
2026-05-09 11:05 -4.11637 120.28444 33868 ft 476 kts 219°
2026-05-09 11:05 -4.16760 120.24235 33870 ft 476 kts 219°
2026-05-09 11:06 -4.21885 120.20024 33872 ft 476 kts 219°
2026-05-09 11:06 -4.27010 120.15812 33872 ft 477 kts 219°
2026-05-09 11:07 -4.32135 120.11599 33874 ft 477 kts 219°
2026-05-09 11:07 -4.37268 120.07379 33877 ft 477 kts 219°
2026-05-09 11:08 -4.42397 120.03161 33881 ft 477 kts 219°
2026-05-09 11:08 -4.47532 119.98938 33881 ft 478 kts 219°
2026-05-09 11:09 -4.52670 119.94711 33882 ft 478 kts 219°
2026-05-09 11:09 -4.57816 119.90477 33883 ft 478 kts 219°
2026-05-09 11:10 -4.62960 119.86244 33886 ft 479 kts 219°
2026-05-09 11:10 -4.67241 119.82720 33876 ft 479 kts 219°
2026-05-09 11:11 -4.72393 119.78479 33875 ft 480 kts 219°
2026-05-09 11:11 -4.77550 119.74232 33872 ft 480 kts 219°
2026-05-09 11:12 -4.82710 119.69983 33864 ft 480 kts 219°
2026-05-09 11:12 -4.87868 119.65733 33856 ft 480 kts 219°
2026-05-09 11:13 -4.93016 119.61491 33860 ft 479 kts 219°
2026-05-09 11:13 -4.98162 119.57249 33859 ft 478 kts 219°
2026-05-09 11:14 -5.02880 119.52606 33862 ft 477 kts 233°
2026-05-09 11:14 -5.06069 119.46786 33855 ft 476 kts 250°
2026-05-09 11:15 -5.08297 119.40546 33858 ft 475 kts 251°
2026-05-09 11:15 -5.10487 119.34288 33852 ft 475 kts 250°
2026-05-09 11:16 -5.12714 119.28051 33846 ft 474 kts 250°
2026-05-09 11:16 -5.14964 119.21833 33847 ft 474 kts 250°
2026-05-09 11:17 -5.17206 119.15657 33846 ft 475 kts 250°
2026-05-09 11:17 -5.19463 119.09436 33851 ft 475 kts 250°
2026-05-09 11:18 -5.21723 119.03200 33849 ft 476 kts 250°
2026-05-09 11:18 -5.23983 118.96960 33857 ft 477 kts 250°
2026-05-09 11:19 -5.26250 118.90699 33856 ft 478 kts 250°
2026-05-09 11:19 -5.28524 118.84416 33863 ft 479 kts 250°
2026-05-09 11:20 -5.30802 118.78120 33866 ft 480 kts 250°
2026-05-09 11:20 -5.33084 118.71809 33858 ft 481 kts 250°
2026-05-09 11:21 -5.35367 118.65496 33863 ft 482 kts 250°
2026-05-09 11:21 -5.37655 118.59167 33864 ft 482 kts 250°
2026-05-09 11:22 -5.39940 118.52843 33853 ft 481 kts 250°
2026-05-09 11:22 -5.42213 118.46549 33854 ft 478 kts 250°
2026-05-09 11:23 -5.44473 118.40288 33861 ft 476 kts 250°
2026-05-09 11:23 -5.46724 118.34054 33860 ft 475 kts 250°
2026-05-09 11:24 -5.48971 118.27824 33863 ft 476 kts 250°
2026-05-09 11:24 -5.51232 118.21553 33869 ft 479 kts 250°
2026-05-09 11:25 -5.53501 118.15259 33872 ft 480 kts 250°
2026-05-09 11:25 -5.55777 118.08944 33862 ft 481 kts 250°
2026-05-09 11:26 -5.58034 118.02675 33859 ft 474 kts 248°
2026-05-09 11:26 -5.60257 117.96501 33861 ft 468 kts 248°
2026-05-09 11:27 -5.62448 117.90417 33863 ft 465 kts 248°
2026-05-09 11:27 -5.64657 117.84277 33873 ft 465 kts 248°
2026-05-09 11:28 -5.66851 117.78184 33873 ft 469 kts 248°
2026-05-09 11:28 -5.69077 117.71996 33872 ft 473 kts 248°
2026-05-09 11:29 -5.71313 117.65775 33871 ft 475 kts 248°
2026-05-09 11:29 -5.73553 117.59538 33865 ft 475 kts 248°
2026-05-09 11:30 -5.75795 117.53292 33865 ft 475 kts 248°
2026-05-09 11:30 -5.78031 117.47064 33862 ft 473 kts 248°
2026-05-09 11:31 -5.80258 117.40856 33864 ft 471 kts 248°
2026-05-09 11:31 -5.82473 117.34685 33864 ft 469 kts 248°
2026-05-09 11:32 -5.84682 117.28523 33866 ft 468 kts 248°
2026-05-09 11:32 -5.86884 117.22379 33866 ft 467 kts 248°
2026-05-09 11:33 -5.89051 117.16246 33865 ft 466 kts 249°
2026-05-09 11:33 -5.92196 117.07006 33868 ft 466 kts 249°
2026-05-09 11:34 -5.94295 117.00840 33868 ft 467 kts 249°
2026-05-09 11:34 -5.96404 116.94662 33871 ft 468 kts 249°
2026-05-09 11:35 -5.98504 116.88518 33870 ft 469 kts 249°
2026-05-09 11:35 -6.00636 116.82277 33871 ft 470 kts 249°
2026-05-09 11:36 -6.02746 116.76095 33870 ft 471 kts 249°
2026-05-09 11:36 -6.04870 116.69874 33870 ft 471 kts 249°
2026-05-09 11:37 -6.06999 116.63635 33870 ft 472 kts 249°
2026-05-09 11:37 -6.09126 116.57398 33868 ft 472 kts 249°
2026-05-09 11:38 -6.11254 116.51154 33869 ft 472 kts 249°
2026-05-09 11:38 -6.13378 116.44917 33867 ft 472 kts 249°
2026-05-09 11:39 -6.15504 116.38672 33870 ft 472 kts 249°
2026-05-09 11:40 -6.18693 116.29314 33869 ft 472 kts 249°
2026-05-09 11:40 -6.20824 116.23086 33870 ft 472 kts 249°
2026-05-09 11:41 -6.22958 116.16844 33870 ft 472 kts 249°
2026-05-09 11:41 -6.25086 116.10612 33867 ft 472 kts 249°
2026-05-09 11:42 -6.27215 116.04374 33870 ft 472 kts 249°
2026-05-09 11:42 -6.29346 115.98129 33870 ft 472 kts 249°
2026-05-09 11:43 -6.31475 115.91886 33866 ft 473 kts 249°
2026-05-09 11:43 -6.33608 115.85628 33872 ft 473 kts 250°
2026-05-09 11:44 -6.35740 115.79372 33871 ft 473 kts 250°
2026-05-09 11:44 -6.37871 115.73113 33873 ft 474 kts 250°
2026-05-09 11:45 -6.40006 115.66842 33871 ft 474 kts 250°
2026-05-09 11:45 -6.42125 115.60613 33872 ft 474 kts 250°
2026-05-09 11:46 -6.44274 115.54294 33873 ft 475 kts 250°
2026-05-09 11:46 -6.46394 115.48058 33876 ft 475 kts 250°
2026-05-09 11:47 -6.48531 115.41770 33869 ft 475 kts 250°
2026-05-09 11:47 -6.50664 115.35489 33873 ft 475 kts 250°
2026-05-09 11:48 -6.52799 115.29198 33870 ft 475 kts 250°
2026-05-09 11:48 -6.54931 115.22913 33870 ft 475 kts 250°
2026-05-09 11:49 -6.56513 115.16471 33872 ft 476 kts 263°
2026-05-09 11:49 -6.56376 115.09820 33877 ft 477 kts 274°
2026-05-09 11:50 -6.55795 115.03167 33867 ft 478 kts 274°
2026-05-09 11:50 -6.55234 114.96513 33865 ft 478 kts 274°
2026-05-09 11:51 -6.54714 114.89846 33864 ft 478 kts 274°
2026-05-09 11:51 -6.54211 114.83184 33869 ft 478 kts 274°
2026-05-09 11:52 -6.53708 114.76517 33863 ft 478 kts 274°
2026-05-09 11:52 -6.53202 114.69850 33866 ft 478 kts 274°
2026-05-09 11:53 -6.52694 114.63179 33870 ft 478 kts 274°
2026-05-09 11:53 -6.52184 114.56511 33863 ft 478 kts 274°
2026-05-09 11:54 -6.51674 114.49839 33860 ft 479 kts 274°
2026-05-09 11:54 -6.51163 114.43164 33864 ft 478 kts 274°
2026-05-09 11:55 -6.50652 114.36499 33863 ft 478 kts 274°
2026-05-09 11:56 -6.49200 114.17635 33859 ft 477 kts 274°
2026-05-09 11:57 -6.48599 114.09857 33855 ft 477 kts 274°
2026-05-09 11:57 -6.48088 114.03257 33858 ft 477 kts 274°
2026-05-09 11:58 -6.47573 113.96612 33859 ft 477 kts 274°
2026-05-09 11:58 -6.47058 113.89970 33860 ft 477 kts 274°
2026-05-09 11:59 -6.46626 113.84398 33858 ft 476 kts 273°
2026-05-09 11:59 -6.46700 113.81079 33628 ft 479 kts 261°
2026-05-09 11:59 -6.47354 113.77769 33094 ft 480 kts 256°
2026-05-09 11:59 -6.48143 113.74522 32503 ft 476 kts 255°
2026-05-09 12:00 -6.48957 113.71317 31958 ft 472 kts 255°
2026-05-09 12:00 -6.49744 113.68169 31388 ft 469 kts 255°
2026-05-09 12:00 -6.50508 113.65001 30836 ft 465 kts 256°
2026-05-09 12:00 -6.51245 113.61844 30277 ft 462 kts 256°
2026-05-09 12:01 -6.51962 113.58705 29693 ft 459 kts 256°
2026-05-09 12:01 -6.52667 113.55579 29089 ft 456 kts 256°
2026-05-09 12:01 -6.53359 113.52497 28526 ft 451 kts 256°
2026-05-09 12:01 -6.54049 113.49430 27976 ft 447 kts 256°
2026-05-09 12:02 -6.54732 113.46391 27444 ft 443 kts 256°
2026-05-09 12:02 -6.55408 113.43392 26917 ft 439 kts 256°
2026-05-09 12:02 -6.56080 113.40411 26394 ft 435 kts 256°
2026-05-09 12:02 -6.56745 113.37461 25879 ft 431 kts 256°
2026-05-09 12:03 -6.57405 113.34533 25362 ft 428 kts 256°
2026-05-09 12:03 -6.58061 113.31623 24834 ft 425 kts 256°
2026-05-09 12:03 -6.58711 113.28737 24315 ft 423 kts 256°
2026-05-09 12:03 -6.59360 113.25854 23805 ft 420 kts 256°
2026-05-09 12:04 -6.60003 113.23000 23266 ft 418 kts 256°
2026-05-09 12:04 -6.60644 113.20154 22700 ft 415 kts 256°
2026-05-09 12:04 -6.61278 113.17338 22210 ft 410 kts 256°
2026-05-09 12:04 -6.61903 113.14565 21779 ft 404 kts 256°
2026-05-09 12:05 -6.62523 113.11824 21295 ft 400 kts 256°
2026-05-09 12:05 -6.63137 113.09108 20814 ft 397 kts 256°
2026-05-09 12:05 -6.63747 113.06411 20341 ft 394 kts 256°
2026-05-09 12:05 -6.64351 113.03737 19855 ft 391 kts 256°
2026-05-09 12:06 -6.64952 113.01074 19353 ft 389 kts 256°
2026-05-09 12:06 -6.65548 112.98432 18866 ft 387 kts 256°
2026-05-09 12:06 -6.66144 112.95793 18386 ft 386 kts 256°
2026-05-09 12:06 -6.66735 112.93170 17858 ft 384 kts 256°
2026-05-09 12:07 -6.67323 112.90559 17347 ft 381 kts 256°
2026-05-09 12:07 -6.67906 112.87970 16853 ft 378 kts 256°
2026-05-09 12:07 -6.68485 112.85401 16386 ft 375 kts 257°
2026-05-09 12:07 -6.69059 112.82853 15915 ft 372 kts 257°
2026-05-09 12:08 -6.69629 112.80322 15448 ft 369 kts 257°
2026-05-09 12:08 -6.70195 112.77808 14946 ft 368 kts 257°
2026-05-09 12:08 -6.70752 112.75327 14480 ft 359 kts 257°
2026-05-09 12:08 -6.71294 112.72912 14021 ft 349 kts 257°
2026-05-09 12:09 -6.71815 112.70593 13579 ft 340 kts 257°
2026-05-09 12:09 -6.72330 112.68297 13107 ft 332 kts 257°
2026-05-09 12:09 -6.72840 112.66023 12603 ft 325 kts 257°
2026-05-09 12:10 -6.74257 112.59703 11550 ft 297 kts 257°
2026-05-09 12:10 -6.74702 112.57719 11391 ft 283 kts 257°
2026-05-09 12:10 -6.75129 112.55813 11273 ft 277 kts 257°
2026-05-09 12:11 -6.75551 112.53931 11170 ft 276 kts 257°
2026-05-09 12:11 -6.75973 112.52049 11067 ft 276 kts 257°
2026-05-09 12:11 -6.76456 112.50179 10943 ft 277 kts 245°
2026-05-09 12:11 -6.77584 112.48641 10821 ft 275 kts 218°
2026-05-09 12:12 -6.79306 112.47800 10524 ft 281 kts 190°
2026-05-09 12:12 -6.81258 112.47744 10262 ft 281 kts 175°
2026-05-09 12:12 -6.83188 112.47964 9937 ft 278 kts 172°
2026-05-09 12:12 -6.85097 112.48218 9591 ft 275 kts 172°
2026-05-09 12:13 -6.86978 112.48466 9260 ft 271 kts 172°
2026-05-09 12:13 -6.88835 112.48702 8950 ft 266 kts 172°
2026-05-09 12:13 -6.90662 112.48926 8654 ft 264 kts 173°
2026-05-09 12:13 -6.92478 112.49143 8361 ft 261 kts 173°
2026-05-09 12:14 -6.94269 112.49355 8090 ft 258 kts 173°
2026-05-09 12:14 -6.96059 112.49566 7797 ft 260 kts 172°
2026-05-09 12:14 -6.97864 112.49777 7519 ft 261 kts 172°
2026-05-09 12:14 -6.99665 112.49984 7313 ft 260 kts 173°
2026-05-09 12:15 -7.01457 112.50187 7104 ft 259 kts 173°
2026-05-09 12:15 -7.03243 112.50389 6910 ft 258 kts 172°
2026-05-09 12:15 -7.05020 112.50590 6705 ft 257 kts 173°
2026-05-09 12:15 -7.06793 112.50791 6511 ft 256 kts 172°
2026-05-09 12:16 -7.08563 112.50991 6322 ft 255 kts 172°
2026-05-09 12:16 -7.10321 112.51190 6120 ft 255 kts 172°
2026-05-09 12:16 -7.12082 112.51390 5919 ft 254 kts 173°
2026-05-09 12:16 -7.13836 112.51589 5713 ft 254 kts 173°
2026-05-09 12:17 -7.15587 112.51788 5517 ft 253 kts 173°
2026-05-09 12:17 -7.17332 112.51986 5326 ft 252 kts 173°
2026-05-09 12:17 -7.19071 112.52183 5133 ft 249 kts 173°
2026-05-09 12:17 -7.20754 112.52374 4935 ft 237 kts 173°
2026-05-09 12:18 -7.22348 112.52554 4744 ft 224 kts 173°
2026-05-09 12:18 -7.23853 112.52725 4564 ft 212 kts 173°
2026-05-09 12:18 -7.25284 112.52887 4412 ft 203 kts 173°
2026-05-09 12:18 -7.26675 112.53045 4284 ft 201 kts 173°
2026-05-09 12:19 -7.28076 112.53205 4138 ft 204 kts 172°
2026-05-09 12:19 -7.29491 112.53365 3981 ft 206 kts 172°
2026-05-09 12:19 -7.30919 112.53528 3819 ft 207 kts 173°
2026-05-09 12:19 -7.32347 112.53714 3662 ft 207 kts 165°
2026-05-09 12:20 -7.33506 112.54499 3467 ft 204 kts 121°
2026-05-09 12:20 -7.33984 112.55818 3359 ft 200 kts 105°
2026-05-09 12:20 -7.34379 112.57155 3177 ft 202 kts 105°
2026-05-09 12:20 -7.34708 112.58539 2998 ft 197 kts 101°
2026-05-09 12:21 -7.34944 112.59834 2816 ft 184 kts 99°
2026-05-09 12:21 -7.35148 112.61077 2665 ft 171 kts 99°
2026-05-09 12:21 -7.35332 112.62212 2515 ft 161 kts 99°
2026-05-09 12:21 -7.35525 112.63417 2564 ft 180 kts 99°
2026-05-09 12:22 -7.35723 112.64651 2380 ft 173 kts 99°
2026-05-09 12:22 -7.35909 112.65809 2166 ft 161 kts 99°
2026-05-09 12:22 -7.36082 112.66885 2005 ft 154 kts 99°
2026-05-09 12:22 -7.36250 112.67928 1791 ft 149 kts 99°
2026-05-09 12:23 -7.36413 112.68943 1597 ft 143 kts 99°
2026-05-09 12:23 -7.36571 112.69921 1413 ft 140 kts 99°
2026-05-09 12:23 -7.36726 112.70884 1245 ft 140 kts 99°
2026-05-09 12:23 -7.36883 112.71864 1057 ft 142 kts 100°
2026-05-09 12:24 -7.37039 112.72829 886 ft 138 kts 99°
2026-05-09 12:24 -7.37192 112.73782 727 ft 138 kts 99°
2026-05-09 12:24 -7.37348 112.74747 568 ft 142 kts 97°
2026-05-09 12:24 -7.37504 112.75718 375 ft 140 kts 99°
2026-05-09 12:25 -7.37657 112.76672 145 ft 136 kts 98°
2026-05-09 12:25 -7.37808 112.77614 15 ft 133 kts 99°
2026-05-09 12:25 -7.37939 112.78418 8 ft 96 kts 99°
2026-05-09 12:25 -7.38015 112.78889 8 ft 35 kts 99°
2026-05-09 12:26 -7.38047 112.79086 10 ft 27 kts 97°
2026-05-09 12:26 -7.38043 112.79230 10 ft 18 kts 77°
2026-05-09 12:26 -7.38004 112.79342 9 ft 17 kts 69°
2026-05-09 12:26 -7.37946 112.79409 8 ft 9 kts 11°
2026-05-09 12:27 -7.37869 112.79422 8 ft 13 kts
2026-05-09 12:27 -7.37769 112.79439 8 ft 16 kts
2026-05-09 12:27 -7.37666 112.79456 8 ft 10 kts 12°
2026-05-09 12:27 -7.37636 112.79462 8 ft 4 kts 10°
2026-05-09 12:28 -7.37607 112.79466 9 ft 5 kts
2026-05-09 12:28 -7.37594 112.79469 8 ft 0 kts